SDA343 NZWN-NZNS

Flight info

Callsign SDA343
Flight time 0h 35m
Altitude 8000
Route NULKO Q235 NS
Aircraft C208/L-SDFGR/C

Departure

Time 2026-04-21 20:21
Airport Wellington International Airport (NZWN)

Arrival

Time 2026-04-21 20:56
Airport Nelson Airport (NZNS)
Time Latitude Longitude Altitude Speed Heading
2026-04-21 19:58 -41.33120 174.81135 25 ft 0 kts 342°
2026-04-21 20:11 -41.33120 174.81144 25 ft 4 kts 166°
2026-04-21 20:11 -41.33175 174.81135 25 ft 12 kts 195°
2026-04-21 20:11 -41.33238 174.81096 25 ft 8 kts 211°
2026-04-21 20:12 -41.33245 174.80997 25 ft 16 kts 281°
2026-04-21 20:12 -41.33236 174.80864 25 ft 11 kts 273°
2026-04-21 20:12 -41.33193 174.80784 25 ft 16 kts
2026-04-21 20:12 -41.33044 174.80793 25 ft 26 kts
2026-04-21 20:13 -41.32870 174.80806 25 ft 28 kts
2026-04-21 20:13 -41.32662 174.80819 25 ft 29 kts
2026-04-21 20:13 -41.32481 174.80831 31 ft 23 kts
2026-04-21 20:13 -41.32337 174.80841 37 ft 18 kts
2026-04-21 20:14 -41.32194 174.80851 42 ft 24 kts
2026-04-21 20:14 -41.32004 174.80863 49 ft 27 kts
2026-04-21 20:14 -41.31916 174.80890 52 ft 4 kts 69°
2026-04-21 20:14 -41.31910 174.80887 52 ft 0 kts 183°
2026-04-21 20:19 -41.31911 174.80887 52 ft 1 kts 190°
2026-04-21 20:19 -41.31899 174.80847 52 ft 11 kts 291°
2026-04-21 20:19 -41.31894 174.80756 52 ft 8 kts 241°
2026-04-21 20:19 -41.31928 174.80741 51 ft 0 kts 183°
2026-04-21 20:20 -41.31936 174.80740 51 ft 12 kts 184°
2026-04-21 20:20 -41.32207 174.80722 46 ft 62 kts 183°
2026-04-21 20:20 -41.32629 174.80669 311 ft 59 kts 188°
2026-04-21 20:20 -41.33053 174.80555 474 ft 71 kts 184°
2026-04-21 20:21 -41.33561 174.80430 687 ft 78 kts 188°
2026-04-21 20:21 -41.34108 174.80279 945 ft 81 kts 192°
2026-04-21 20:21 -41.34608 174.79931 1175 ft 101 kts 234°
2026-04-21 20:21 -41.34710 174.78925 1459 ft 109 kts 249°
2026-04-21 20:22 -41.34776 174.77949 1810 ft 103 kts 249°
2026-04-21 20:22 -41.34862 174.76091 2433 ft 104 kts 250°
2026-04-21 20:22 -41.34901 174.75106 2685 ft 109 kts 250°
2026-04-21 20:23 -41.34946 174.74052 2891 ft 118 kts 250°
2026-04-21 20:23 -41.34964 174.72908 3090 ft 134 kts 264°
2026-04-21 20:23 -41.34640 174.71663 3273 ft 147 kts 283°
2026-04-21 20:23 -41.34194 174.70457 3520 ft 148 kts 282°
2026-04-21 20:24 -41.33778 174.69230 3684 ft 144 kts 278°
2026-04-21 20:24 -41.33417 174.68012 3793 ft 139 kts 275°
2026-04-21 20:24 -41.33076 174.66809 3961 ft 137 kts 275°
2026-04-21 20:24 -41.32727 174.65618 4170 ft 139 kts 277°
2026-04-21 20:25 -41.32381 174.64425 4403 ft 138 kts 276°
2026-04-21 20:25 -41.32033 174.63223 4628 ft 142 kts 277°
2026-04-21 20:25 -41.31665 174.61997 4830 ft 144 kts 278°
2026-04-21 20:25 -41.31295 174.60755 5012 ft 145 kts 277°
2026-04-21 20:26 -41.30924 174.59503 5209 ft 145 kts 278°
2026-04-21 20:26 -41.30558 174.58263 5405 ft 143 kts 277°
2026-04-21 20:26 -41.30185 174.57008 5476 ft 154 kts 278°
2026-04-21 20:26 -41.29782 174.55611 5357 ft 167 kts 280°
2026-04-21 20:27 -41.29340 174.54138 5238 ft 177 kts 282°
2026-04-21 20:27 -41.28869 174.52596 5112 ft 181 kts 282°
2026-04-21 20:27 -41.28395 174.51071 4981 ft 178 kts 282°
2026-04-21 20:27 -41.27948 174.49596 5049 ft 171 kts 280°
2026-04-21 20:28 -41.27531 174.48124 5093 ft 170 kts 279°
2026-04-21 20:28 -41.27120 174.46668 5110 ft 167 kts 279°
2026-04-21 20:28 -41.26702 174.45226 5120 ft 168 kts 279°
2026-04-21 20:28 -41.26275 174.43777 5125 ft 169 kts 280°
2026-04-21 20:29 -41.25840 174.42302 5130 ft 172 kts 280°
2026-04-21 20:29 -41.25400 174.40822 5131 ft 173 kts 280°
2026-04-21 20:29 -41.24959 174.39328 5128 ft 174 kts 281°
2026-04-21 20:29 -41.24516 174.37842 5127 ft 174 kts 280°
2026-04-21 20:30 -41.24074 174.36349 5130 ft 173 kts 280°
2026-04-21 20:30 -41.23631 174.34865 5129 ft 172 kts 281°
2026-04-21 20:30 -41.23187 174.33399 5127 ft 171 kts 280°
2026-04-21 20:30 -41.22758 174.31943 5128 ft 172 kts 280°
2026-04-21 20:31 -41.22318 174.30467 5132 ft 172 kts 280°
2026-04-21 20:31 -41.21886 174.28997 5125 ft 171 kts 280°
2026-04-21 20:31 -41.21448 174.27522 5137 ft 171 kts 280°
2026-04-21 20:31 -41.20999 174.26034 5151 ft 176 kts 281°
2026-04-21 20:32 -41.20542 174.24537 5090 ft 172 kts 282°
2026-04-21 20:32 -41.20104 174.23087 5102 ft 167 kts 280°
2026-04-21 20:32 -41.19685 174.21637 5120 ft 169 kts 280°
2026-04-21 20:32 -41.19252 174.20177 5129 ft 171 kts 280°
2026-04-21 20:33 -41.18818 174.18702 5130 ft 172 kts 281°
2026-04-21 20:33 -41.18370 174.17224 5124 ft 173 kts 281°
2026-04-21 20:33 -41.17916 174.15735 5130 ft 174 kts 281°
2026-04-21 20:33 -41.17469 174.14247 5134 ft 173 kts 281°
2026-04-21 20:34 -41.17021 174.12766 5095 ft 172 kts 281°
2026-04-21 20:34 -41.16580 174.11307 5106 ft 170 kts 281°
2026-04-21 20:34 -41.16142 174.09845 5140 ft 170 kts 280°
2026-04-21 20:34 -41.15706 174.08376 5145 ft 172 kts 280°
2026-04-21 20:35 -41.15343 174.06917 5147 ft 165 kts 271°
2026-04-21 20:35 -41.15173 174.05464 5063 ft 156 kts 264°
2026-04-21 20:35 -41.15028 174.04044 5104 ft 156 kts 266°
2026-04-21 20:35 -41.14863 174.02623 5113 ft 154 kts 266°
2026-04-21 20:36 -41.14711 174.01210 5139 ft 156 kts 266°
2026-04-21 20:36 -41.14605 174.00252 5082 ft 154 kts 266°
2026-04-21 20:36 -41.14440 173.98850 5070 ft 153 kts 265°
2026-04-21 20:36 -41.14289 173.97472 5110 ft 154 kts 267°
2026-04-21 20:37 -41.14124 173.96032 5143 ft 162 kts 268°
2026-04-21 20:37 -41.13949 173.94544 5156 ft 164 kts 268°
2026-04-21 20:37 -41.13758 173.93037 5129 ft 165 kts 269°
2026-04-21 20:37 -41.13573 173.91538 5141 ft 165 kts 270°
2026-04-21 20:38 -41.13403 173.90059 5113 ft 161 kts 268°
2026-04-21 20:38 -41.13252 173.88595 5132 ft 160 kts 266°
2026-04-21 20:38 -41.13097 173.87122 5138 ft 163 kts 267°
2026-04-21 20:38 -41.12928 173.85626 5150 ft 164 kts 268°
2026-04-21 20:39 -41.12754 173.84120 5185 ft 168 kts 268°
2026-04-21 20:39 -41.12578 173.82562 5213 ft 172 kts 268°
2026-04-21 20:39 -41.12388 173.80966 5211 ft 178 kts 270°
2026-04-21 20:39 -41.12189 173.79338 5185 ft 178 kts 269°
2026-04-21 20:40 -41.11997 173.77753 5169 ft 175 kts 269°
2026-04-21 20:40 -41.11806 173.76201 5136 ft 168 kts 269°
2026-04-21 20:40 -41.11636 173.74697 5146 ft 162 kts 267°
2026-04-21 20:40 -41.11494 173.73197 5193 ft 168 kts 267°
2026-04-21 20:41 -41.11320 173.71658 5158 ft 168 kts 269°
2026-04-21 20:41 -41.11131 173.70144 5147 ft 165 kts 268°
2026-04-21 20:41 -41.10950 173.68644 5127 ft 162 kts 268°
2026-04-21 20:41 -41.10779 173.67205 5098 ft 156 kts 267°
2026-04-21 20:42 -41.10624 173.65779 5131 ft 157 kts 267°
2026-04-21 20:42 -41.10463 173.64325 5180 ft 162 kts 268°
2026-04-21 20:42 -41.10294 173.62820 5176 ft 168 kts 269°
2026-04-21 20:42 -41.10106 173.61285 5153 ft 169 kts 269°
2026-04-21 20:43 -41.09920 173.59737 5165 ft 171 kts 269°
2026-04-21 20:43 -41.09740 173.58171 5142 ft 172 kts 269°
2026-04-21 20:43 -41.09552 173.56623 5138 ft 168 kts 269°
2026-04-21 20:43 -41.09376 173.55088 5157 ft 169 kts 268°
2026-04-21 20:44 -41.09196 173.53550 5148 ft 168 kts 268°
2026-04-21 20:44 -41.09039 173.52021 5153 ft 167 kts 266°
2026-04-21 20:44 -41.08894 173.50516 5157 ft 167 kts 266°
2026-04-21 20:44 -41.08746 173.48989 5161 ft 167 kts 267°
2026-04-21 20:45 -41.08596 173.47471 5162 ft 166 kts 267°
2026-04-21 20:45 -41.08453 173.45928 5065 ft 173 kts 267°
2026-04-21 20:45 -41.08298 173.44359 4864 ft 169 kts 268°
2026-04-21 20:45 -41.08138 173.42828 4659 ft 166 kts 268°
2026-04-21 20:46 -41.07984 173.41326 4456 ft 164 kts 268°
2026-04-21 20:46 -41.07832 173.39832 4257 ft 163 kts 268°
2026-04-21 20:46 -41.07681 173.38342 4064 ft 163 kts 268°
2026-04-21 20:46 -41.07552 173.36858 3866 ft 159 kts 261°
2026-04-21 20:47 -41.07730 173.35466 3663 ft 149 kts 238°
2026-04-21 20:47 -41.08234 173.34356 3480 ft 137 kts 219°
2026-04-21 20:47 -41.08894 173.33617 3572 ft 115 kts 202°
2026-04-21 20:47 -41.09608 173.33168 3630 ft 114 kts 193°
2026-04-21 20:48 -41.10362 173.32786 3654 ft 118 kts 195°
2026-04-21 20:48 -41.11130 173.32375 3660 ft 120 kts 195°
2026-04-21 20:48 -41.11913 173.31961 3661 ft 122 kts 195°
2026-04-21 20:48 -41.12722 173.31543 3523 ft 125 kts 195°
2026-04-21 20:49 -41.13530 173.31123 3354 ft 125 kts 195°
2026-04-21 20:49 -41.14325 173.30712 3174 ft 122 kts 195°
2026-04-21 20:49 -41.15083 173.30318 2999 ft 113 kts 195°
2026-04-21 20:49 -41.15792 173.29948 2844 ft 106 kts 195°
2026-04-21 20:50 -41.16472 173.29602 2711 ft 104 kts 194°
2026-04-21 20:50 -41.17141 173.29257 2567 ft 102 kts 194°
2026-04-21 20:50 -41.17804 173.28908 2426 ft 102 kts 195°
2026-04-21 20:50 -41.18458 173.28564 2293 ft 101 kts 195°
2026-04-21 20:51 -41.19114 173.28219 2153 ft 102 kts 195°
2026-04-21 20:51 -41.19771 173.27873 2015 ft 101 kts 195°
2026-04-21 20:51 -41.20433 173.27535 1877 ft 102 kts 195°
2026-04-21 20:51 -41.21096 173.27188 1734 ft 102 kts 196°
2026-04-21 20:52 -41.21753 173.26843 1591 ft 101 kts 196°
2026-04-21 20:52 -41.22401 173.26509 1460 ft 99 kts 197°
2026-04-21 20:52 -41.23032 173.26174 1327 ft 99 kts 197°
2026-04-21 20:52 -41.23674 173.25836 1190 ft 99 kts 197°
2026-04-21 20:53 -41.24312 173.25507 1059 ft 98 kts 197°
2026-04-21 20:53 -41.24945 173.25180 922 ft 98 kts 196°
2026-04-21 20:53 -41.25565 173.24854 805 ft 90 kts 197°
2026-04-21 20:53 -41.26106 173.24563 684 ft 75 kts 195°
2026-04-21 20:54 -41.26534 173.24345 582 ft 59 kts 192°
2026-04-21 20:54 -41.26941 173.24171 520 ft 64 kts 192°
2026-04-21 20:54 -41.27378 173.24011 478 ft 66 kts 188°
2026-04-21 20:54 -41.27831 173.23870 443 ft 67 kts 185°
2026-04-21 20:55 -41.28299 173.23700 312 ft 71 kts 196°
2026-04-21 20:55 -41.28724 173.23426 206 ft 68 kts 201°
2026-04-21 20:55 -41.29114 173.23060 97 ft 69 kts 212°
2026-04-21 20:55 -41.29467 173.22666 31 ft 58 kts 219°
2026-04-21 20:56 -41.29661 173.22443 31 ft 14 kts 219°
2026-04-21 20:56 -41.29734 173.22430 31 ft 11 kts 139°
2026-04-21 20:56 -41.29773 173.22486 31 ft 7 kts 135°
2026-04-21 20:56 -41.29832 173.22466 31 ft 13 kts 223°
2026-04-21 20:57 -41.29880 173.22408 31 ft 8 kts 224°
2026-04-21 20:57 -41.29907 173.22427 31 ft 5 kts 109°
2026-04-21 20:57 -41.29899 173.22441 31 ft 0 kts 36°